Starlink 4349

operational
NORAD ID: 53044 Int'l Des: 2022-077 Owner: SPXS Country: US Constellation: starlink
LEOCIRCULARRETROGRADESSO

About Starlink 4349

Description loading...

Live Position

Loading 3D Globe...

Upcoming Passes

Altitude History

Altitude vs Time

uPlot chart will show altitude changes over time

Two-Line Element Set

1 53044U 22077B 25352.45601095 .00010452 00000-0 33773-3 0 9999
2 53044 97.6031 171.9148 0001264 110.8985 249.2391 15.32291778188811
Epoch: Dec 18, 2025 • Age: 10 hours

Current Status

Altitude 490.0 km
Velocity 7.62 km/s
Sub-Earth Point -52.80°S, 65.89°W
Launch Date Jul 11, 2022
Age 3.4 years
Type internet

Technical Details

Classification Payload
Mass 297.00 kg
Dry Mass 275.00 kg
Total Mass 297.00 kg
Length 0.20 m
Diameter 2.80 m
Span 9.00 m
Shape Box + pan
Manufacturer SPXS
Bus Type Starlink
Phase Status In Orbit
Owner/State SPXS/US

Large Constellations

Loading constellations...